Weather History for Page, AZ

Change the Weather History Date:

Saturday, January 26, 2013

  Actual Average Record
Temperature  
Mean Temperature 42 °F -  
Max Temperature 45 °F 44 °F 57 °F (1975)
Min Temperature 39 °F 26 °F 18 °F (1966)
Degree Days  
Heating Degree Days 23    
Moisture  
Dew Point 38 °F    
Average Humidity 91    
Maximum Humidity 100    
Minimum Humidity 68    
Precipitation  
Precipitation 0.43 in - - ()
Sea Level Pressure  
Sea Level Pressure 29.96 in    
Wind  
Wind Speed 1 mph (NNE)    
Max Wind Speed 7 mph    
Max Gust Speed -    
Visibility 4 miles    
Events Fog , Rain    
Averages and records for this station are not official NWS values.
T = Trace of Precipitation, MM = Missing Value Source: NWS Daily Summary

Daily Weather History Graph

Daily Weather History Graph

Search for Another Location

Airport:

Trip Planner

Search our weather history database for the weather conditions in past years. The results will help you decide how hot, cold, wet, or windy it might be!

Date:

Astronomy

Jan. 26, 2013 Rise Set
Actual Time 7:32 AM MST 5:44 PM MST
Civil Twilight 7:04 AM MST 6:12 PM MST
Nautical Twilight 6:33 AM MST 6:43 PM MST
Astronomical Twilight 6:02 AM MST 7:14 PM MST
Moon 5:42 PM MST 6:53 AM MST
Length of Visible Light 11h 07m
Length of Day
10h 12m
Full, 100% of the Moon is Illuminated
Jan 26
Full
Jan 26
Full
Feb 3
Last Quarter
Feb 10
New
Feb 17
First Quarter

Hourly Weather History & Observations

Time (MST) Temp. Windchill Dew Point Humidity Pressure Visibility Wind Dir Wind Speed Gust Speed Precip Events Conditions
12:53 AM 44.1 °F - 34.0 °F 68% 30.12 in 10.0 mi Calm Calm - 0.00 in Rain Light Rain
1:53 AM 43.0 °F - 35.1 °F 74% 30.11 in 10.0 mi Calm Calm - 0.00 in Rain Light Rain
2:53 AM 42.1 °F - 37.0 °F 82% 30.08 in 5.0 mi Calm Calm - 0.03 in Rain Light Rain
3:33 AM 41.0 °F - 37.4 °F 87% 30.09 in 6.0 mi Calm Calm - 0.01 in Rain Light Rain
3:53 AM 41.0 °F - 37.0 °F 86% 30.04 in 6.0 mi Calm Calm - 0.02 in Rain Light Rain
4:53 AM 39.9 °F - 37.0 °F 89% 30.03 in 3.0 mi Calm Calm - 0.07 in Rain Rain
5:22 AM 39.2 °F 37.0 °F 37.4 °F 93% 30.06 in 2.0 mi WNW 3.5 mph - 0.06 in Rain Rain
5:44 AM 39.2 °F - 37.4 °F 93% 30.06 in 1.8 mi Calm Calm - 0.10 in Rain Rain
5:53 AM 39.9 °F - 37.9 °F 93% 30.03 in 1.2 mi Calm Calm - 0.12 in Rain Rain
6:18 AM 39.2 °F - 37.4 °F 93% 30.05 in 1.8 mi Calm Calm - 0.06 in Rain Rain
6:37 AM 39.2 °F - 37.4 °F 93% 30.06 in 2.0 mi Calm Calm - 0.10 in Rain Rain
6:46 AM 39.2 °F - 37.4 °F 93% 30.06 in 2.5 mi Calm Calm - 0.11 in Rain Rain
6:53 AM 39.9 °F - 37.9 °F 93% 30.02 in 3.0 mi Calm Calm - 0.12 in Rain Rain
7:00 AM 39.2 °F - 37.4 °F 93% 30.05 in 2.5 mi Calm Calm - 0.01 in Rain Rain
7:11 AM 39.2 °F - 37.4 °F 93% 30.04 in 3.0 mi Calm Calm - 0.03 in Rain Light Rain
7:18 AM 39.2 °F - 37.4 °F 93% 30.04 in 1.8 mi Calm Calm - 0.04 in Rain Rain
7:28 AM 39.2 °F 37.0 °F 37.4 °F 93% 30.03 in 0.2 mi NNE 3.5 mph - 0.05 in Fog , Rain Light Rain
7:53 AM 39.9 °F - 37.9 °F 93% 30.00 in 0.2 mi Calm Calm - 0.05 in Fog , Rain Light Rain
8:53 AM 39.9 °F 37.8 °F 37.9 °F 93% 29.98 in 1.0 mi NE 3.5 mph - 0.03 in Rain Light Rain
9:11 AM 39.2 °F 37.0 °F 37.4 °F 93% 30.00 in 2.0 mi NNE 3.5 mph - 0.02 in Rain Light Rain
9:16 AM 39.2 °F 35.9 °F 37.4 °F 93% 30.00 in 0.8 mi NNE 4.6 mph - 0.02 in Rain Light Rain
9:28 AM 39.2 °F 37.0 °F 37.4 °F 93% 30.00 in 2.0 mi NNE 3.5 mph - 0.03 in Rain Light Rain
9:53 AM 39.9 °F 37.8 °F 37.9 °F 93% 29.98 in 2.5 mi NNE 3.5 mph - 0.05 in Rain Light Rain
10:10 AM 39.2 °F - 39.2 °F 100% 30.01 in 3.0 mi Calm Calm - 0.01 in Rain Rain
10:17 AM 39.2 °F - 37.4 °F 93% 30.02 in 2.5 mi Calm Calm - 0.02 in Rain Rain
10:41 AM 39.2 °F - 37.4 °F 93% 30.01 in 2.5 mi Calm Calm - 0.06 in Rain Rain
10:53 AM 39.9 °F - 37.9 °F 93% 29.98 in 2.5 mi Calm Calm - 0.08 in Rain Rain
11:02 AM 39.2 °F - 37.4 °F 93% 30.01 in 3.0 mi Calm Calm - 0.01 in Rain Light Rain
11:22 AM 41.0 °F 39.0 °F 37.4 °F 87% 29.99 in 4.0 mi North 3.5 mph - 0.03 in Rain Light Rain
11:34 AM 41.0 °F 39.0 °F 39.2 °F 93% 29.99 in 5.0 mi North 3.5 mph - 0.04 in Rain Light Rain
11:53 AM 41.0 °F 39.0 °F 39.0 °F 93% 29.95 in 5.0 mi NNW 3.5 mph - 0.05 in Rain Light Rain
12:53 PM 41.0 °F - 39.0 °F 93% 29.90 in 6.0 mi Calm Calm - 0.01 in Rain Light Rain
1:50 PM 42.8 °F - 39.2 °F 87% 29.90 in 5.0 mi Calm Calm - 0.01 in Rain Light Rain
1:53 PM 41.0 °F - 39.0 °F 93% 29.87 in 5.0 mi Calm Calm - 0.01 in Rain Light Rain
2:31 PM 41.0 °F - 39.2 °F 93% 29.88 in 5.0 mi Calm Calm - 0.02 in Rain Light Rain
2:43 PM 41.0 °F - 39.2 °F 93% 29.88 in 5.0 mi Calm Calm - 0.03 in Rain Light Rain
2:53 PM 42.1 °F - 39.0 °F 89% 29.85 in 5.0 mi Calm Calm - 0.03 in Rain Light Rain
3:08 PM 42.8 °F - 39.2 °F 87% 29.88 in 6.0 mi Calm Calm - 0.01 in Rain Light Rain
3:53 PM 41.0 °F - 39.0 °F 93% 29.85 in 7.0 mi Calm Calm - 0.02 in Rain Light Rain
4:53 PM 41.0 °F 39.0 °F 39.0 °F 93% 29.84 in 7.0 mi NNE 3.5 mph - 0.00 in Rain Light Rain
5:09 PM 41.0 °F 39.0 °F 39.2 °F 93% 29.87 in 9.0 mi North 3.5 mph - 0.00 in Rain Light Rain
5:53 PM 41.0 °F 39.0 °F 39.0 °F 93% 29.85 in 10.0 mi NNE 3.5 mph - 0.00 in   Overcast
6:31 PM 41.0 °F - 39.2 °F 93% 29.88 in 10.0 mi Calm Calm - N/A   Overcast
6:53 PM 41.0 °F - 39.0 °F 93% 29.87 in 10.0 mi Calm Calm - 0.00 in Rain Light Rain
7:28 PM 39.2 °F - 39.2 °F 100% 29.89 in 10.0 mi Calm Calm - 0.01 in Rain Light Rain
7:37 PM 41.0 °F - 39.2 °F 93% 29.89 in 10.0 mi Calm Calm - 0.01 in Rain Light Rain
7:53 PM 41.0 °F - 37.9 °F 89% 29.87 in 10.0 mi Calm Calm - 0.01 in Rain Light Rain
8:53 PM 41.0 °F - 39.0 °F 93% 29.87 in 9.0 mi Calm Calm - 0.00 in   Overcast
9:53 PM 41.0 °F - 37.9 °F 89% 29.88 in 10.0 mi Calm Calm - 0.00 in Rain Light Rain
10:12 PM 41.0 °F - 39.2 °F 93% 29.91 in 1.5 mi Calm Calm - 0.00 in   Overcast
10:24 PM 41.0 °F - 39.2 °F 93% 29.91 in 1.8 mi Calm Calm - 0.00 in   Overcast
10:50 PM 41.0 °F - 39.2 °F 93% 29.91 in 0.5 mi Calm Calm - 0.00 in Fog Fog
10:53 PM 41.0 °F - 39.0 °F 93% 29.89 in 0.5 mi Calm Calm - 0.00 in Fog Fog
11:05 PM 41.0 °F - 39.2 °F 93% 29.92 in 2.0 mi Calm Calm - N/A   Overcast
11:13 PM 41.0 °F - 39.2 °F 93% 29.92 in 5.0 mi Calm Calm - N/A   Overcast
11:42 PM 41.0 °F - 39.2 °F 93% 29.92 in 4.0 mi Calm Calm - N/A   Overcast
11:53 PM 39.9 °F 35.1 °F 39.0 °F 97% 29.90 in 1.5 mi SSE 6.9 mph - N/A   Overcast